Date String (YYYY-MM-DD hh:mm:ss) UTC,Instrument flags,Ambient pressure (hPa),Sample flow (lpm),Bypass flow (lpm),Sample temperature (°C),Ambient temperature (°C),ASC tube jacket temperature (°C),LED temperature (°C),Box temperature (°C),Sample RH (%),Span deviation,Mass concentration (μg/m³),Mass concentration (μg/m³),Mass concentration (μg/m³)
DateTimeUTC,F1_M11,P_M11,Q1_M11,Q2_M11,T1_M11,T2_M11,T3_M11,T4_M11,T5_M11,U1_M11,ZSPAN_M11,X0_M11,X2_M11,X1_M11
2022-12-26 13:00:00,,0831.0,5.00,0.00,21.5,20.4,00.0,30.4,23.3,18.7,0000.0,0004.41,0003.05,0002.72
2022-12-26 13:01:00,,0831.0,4.98,0.00,21.5,20.3,00.0,30.4,23.3,18.7,0000.0,0004.45,0003.02,0002.70
2022-12-26 13:02:00,,0830.9,4.97,0.00,21.5,20.3,00.0,30.4,23.4,18.6,0000.0,0004.45,0003.01,0002.67
2022-12-26 13:03:00,,0831.0,5.02,0.00,21.5,20.3,00.0,30.4,23.4,18.6,0000.0,0004.32,0002.96,0002.66
2022-12-26 13:04:00,,0830.9,5.02,0.00,21.5,20.3,00.0,30.4,23.4,18.6,0000.0,0004.31,0002.92,0002.64
2022-12-26 13:05:00,,0831.0,5.00,0.00,21.5,20.3,00.0,30.4,23.3,18.7,0000.0,0004.34,0002.87,0002.61
2022-12-26 13:06:00,,0831.0,4.97,0.00,21.5,20.3,00.0,30.4,23.4,18.7,0000.0,0004.24,0002.84,0002.60
2022-12-26 13:07:00,,0831.0,4.97,0.00,21.5,20.3,00.0,30.4,23.4,18.7,0000.0,0004.16,0002.84,0002.58
2022-12-26 13:08:00,,0831.0,5.01,0.00,21.5,20.3,00.0,30.4,23.4,18.7,0000.0,0004.26,0002.86,0002.58
2022-12-26 13:09:00,,0831.1,5.02,0.00,21.5,20.3,00.0,30.4,23.4,18.8,0000.0,0004.39,0002.92,0002.60
2022-12-26 13:10:00,,0831.0,5.01,0.00,21.5,20.3,00.0,30.4,23.3,18.8,0000.0,0004.43,0002.95,0002.63
2022-12-26 13:11:00,,0831.0,4.97,0.00,21.5,20.3,00.0,30.4,23.3,18.9,0000.0,0004.32,0002.99,0002.65
2022-12-26 13:12:00,,0831.1,4.96,0.00,21.5,20.4,00.0,30.4,23.3,18.9,0000.0,0004.15,0003.03,0002.70
2022-12-26 13:13:00,,0831.0,5.02,0.00,21.6,21.1,00.0,30.4,23.5,18.9,0000.0,0004.20,0003.10,0002.78
2022-12-26 13:14:00,,0831.1,5.03,0.00,21.7,21.8,00.0,30.4,23.8,18.8,0000.0,0004.61,0003.14,0002.83
2022-12-26 13:15:00,,0831.2,4.98,0.00,21.8,21.6,00.0,30.4,23.8,18.7,0000.0,0004.78,0003.18,0002.90
2022-12-26 13:16:00,,0831.2,4.98,0.00,21.8,21.3,00.0,30.5,23.7,18.7,0000.0,0004.82,0003.25,0003.00
2022-12-26 13:17:00,,0831.1,5.02,0.00,21.8,21.0,00.0,30.5,23.7,18.7,0000.0,0004.98,0003.32,0003.09
2022-12-26 13:18:00,,0831.1,5.01,0.00,21.8,20.8,00.0,30.5,23.6,18.8,0000.0,0005.06,0003.38,0003.17
2022-12-26 13:19:00,,0831.0,5.01,0.00,21.8,20.6,00.0,30.6,23.6,18.8,0000.0,0005.11,0003.43,0003.23
2022-12-26 13:20:00,,0831.1,4.99,0.00,21.8,20.5,00.0,30.6,23.5,18.8,0000.0,0005.13,0003.48,0003.28
2022-12-26 13:21:00,,0831.2,4.97,0.00,21.7,20.4,00.0,30.6,23.5,18.8,0000.0,0005.27,0003.53,0003.33
2022-12-26 13:22:00,,0831.2,4.99,0.00,21.7,20.4,00.0,30.6,23.5,18.9,0000.0,0005.79,0003.59,0003.37
2022-12-26 13:23:00,,0831.2,5.01,0.00,21.7,20.3,00.0,30.6,23.5,18.9,0000.0,0006.12,0003.62,0003.40
2022-12-26 13:24:00,,0831.1,5.02,0.00,21.7,20.2,00.0,30.6,23.4,18.9,0000.0,0006.20,0003.65,0003.42
2022-12-26 13:25:00,,0831.0,4.99,0.00,21.7,20.1,00.0,30.6,23.4,19.0,0000.0,0006.02,0003.68,0003.45
2022-12-26 13:26:00,,0831.0,4.99,0.00,21.6,19.9,00.0,30.5,23.3,19.0,0000.0,0006.04,0003.72,0003.48
2022-12-26 13:27:00,,0831.0,4.97,0.00,21.6,19.8,00.0,30.5,23.2,19.1,0000.0,0006.01,0003.72,0003.49
2022-12-26 13:28:00,,0831.0,5.02,0.00,21.5,19.8,00.0,30.5,23.2,19.1,0000.0,0006.07,0003.73,0003.49
2022-12-26 13:29:00,,0831.0,5.03,0.00,21.5,19.8,00.0,30.5,23.2,19.1,0000.0,0006.07,0003.72,0003.49
2022-12-26 13:30:00,,0831.0,5.00,0.00,21.5,19.8,00.0,30.5,23.2,19.1,0000.0,0005.99,0003.71,0003.48
2022-12-26 13:31:00,,0831.0,5.01,0.00,21.5,19.8,00.0,30.5,23.2,19.2,0000.0,0005.85,0003.68,0003.47
2022-12-26 13:32:00,,0831.0,4.97,0.00,21.5,19.8,00.0,30.5,23.2,19.2,0000.0,0005.79,0003.67,0003.47
2022-12-26 13:33:00,,0831.1,4.98,0.00,21.5,20.1,00.0,30.4,23.2,19.1,0000.0,0005.58,0003.67,0003.47
2022-12-26 13:34:00,,0831.0,5.02,0.00,21.6,21.2,00.0,30.4,23.5,19.0,0000.0,0005.06,0003.65,0003.47
2022-12-26 13:35:00,,0831.0,5.03,0.00,21.7,21.9,00.0,30.4,23.7,18.9,0000.0,0005.09,0003.65,0003.47
2022-12-26 13:36:00,,0831.0,4.96,0.00,21.7,21.6,00.0,30.4,23.7,18.8,0000.0,0005.07,0003.65,0003.47
2022-12-26 13:37:00,,0831.0,5.00,0.00,21.7,21.2,00.0,30.5,23.6,18.8,0000.0,0005.10,0003.64,0003.46
2022-12-26 13:38:00,,0831.0,5.01,0.00,21.7,20.8,00.0,30.5,23.5,18.8,0000.0,0005.08,0003.64,0003.46
2022-12-26 13:39:00,,0831.0,5.01,0.00,21.7,20.6,00.0,30.5,23.5,18.8,0000.0,0005.08,0003.65,0003.47
2022-12-26 13:40:00,,0831.0,4.98,0.00,21.7,20.4,00.0,30.5,23.4,18.8,0000.0,0005.07,0003.65,0003.48
2022-12-26 13:41:00,,0831.0,4.99,0.00,21.6,20.2,00.0,30.5,23.3,18.8,0000.0,0005.41,0003.67,0003.48
2022-12-26 13:42:00,,0831.1,5.00,0.00,21.6,20.1,00.0,30.5,23.3,18.8,0000.0,0005.58,0003.67,0003.48
2022-12-26 13:43:00,,0831.1,5.03,0.00,21.6,20.0,00.0,30.5,23.2,18.9,0000.0,0005.57,0003.66,0003.47
2022-12-26 13:44:00,,0831.0,4.99,0.00,21.5,19.9,00.0,30.5,23.2,18.9,0000.0,0005.51,0003.65,0003.48
2022-12-26 13:45:00,,0831.0,5.01,0.00,21.5,19.7,00.0,30.5,23.1,18.9,0000.0,0005.51,0003.65,0003.48
2022-12-26 13:46:00,,0831.1,4.98,0.00,21.5,19.6,00.0,30.5,23.0,19.0,0000.0,0005.43,0003.64,0003.47
2022-12-26 13:47:00,,0831.0,4.97,0.00,21.4,19.5,00.0,30.4,22.9,19.1,0000.0,0005.36,0003.63,0003.47
2022-12-26 13:48:00,,0831.0,4.99,0.00,21.3,19.3,00.0,30.4,22.8,19.3,0000.0,0005.15,0003.62,0003.48
2022-12-26 13:49:00,,0831.1,5.02,0.00,21.2,19.1,00.0,30.4,22.7,19.4,0000.0,0005.07,0003.62,0003.49
2022-12-26 13:50:00,,0831.0,5.03,0.00,21.2,19.0,00.0,30.3,22.6,19.5,0000.0,0005.10,0003.64,0003.50
2022-12-26 13:51:00,,0831.0,5.00,0.00,21.2,20.0,00.0,30.2,22.8,19.5,0000.0,0005.11,0003.64,0003.51
2022-12-26 13:52:00,,0830.9,4.95,0.00,21.3,21.2,00.0,30.2,23.2,19.4,0000.0,0004.82,0003.62,0003.52
2022-12-26 13:53:00,,0830.9,5.03,0.00,21.4,21.2,00.0,30.2,23.2,19.3,0000.0,0004.80,0003.63,0003.53
2022-12-26 13:54:00,,0830.9,5.03,0.00,21.4,20.7,00.0,30.3,23.1,19.2,0000.0,0006.27,0003.66,0003.55
2022-12-26 13:55:00,,0831.0,4.99,0.00,21.3,20.1,00.0,30.3,23.0,19.2,0000.0,0006.86,0003.67,0003.54
2022-12-26 13:56:00,,0830.9,4.97,0.00,21.3,19.8,00.0,30.3,22.8,19.3,0000.0,0007.42,0003.70,0003.55
2022-12-26 13:57:00,,0830.9,5.01,0.00,21.2,19.5,00.0,30.3,22.7,19.3,0000.0,0007.47,0003.73,0003.56
2022-12-26 13:58:00,,0830.9,5.02,0.00,21.1,19.3,00.0,30.2,22.6,19.4,0000.0,0007.50,0003.74,0003.56
2022-12-26 13:59:00,,0830.9,5.02,0.00,21.1,19.1,00.0,30.2,22.5,19.4,0000.0,0007.50,0003.73,0003.55
